Location: Sortland
(68.7020°N, 15.4240°E)
Time: 02:44:11
(UTC+01:00)

Envisat - Pass Details

Date: 30 October 2019
Orbit: 764 x 766 km, 98.1° (Epoch: 12 November)

Event Time Altitude Azimuth Distance (km) Brightness Sun altitude
Rises 05:54:52 0° 17° (NNE) 3,249 6.4 -11.6°
Reaches altitude 10° 05:57:33 10° 29° (NNE) 2,319 5.8 -11.3°
Maximum altitude 06:01:50 27° 87° (E) 1,467 5.4 -10.9°
Drops below altitude 10° 06:06:07 10° 144° (SE) 2,308 6.2 -10.6°
Sets 06:08:46 0° 157° (SSE) 3,230 6.8 -10.3°
